Location: Lake Crest
(37.6062°N, 88.9176°W)
Time: 02:10:05
(UTC+00:00)

Lacrosse 5 - Pass Details

Date: 15 December 2019
Orbit: 717 x 722 km, 57.0° (Epoch: 10 January)

Event Time Altitude Azimuth Distance (km) Brightness Sun altitude
Rises 01:50:21 0° 266° (W) 3,117 6.1 -37.2°
Reaches altitude 10° 01:53:22 10° 284° (WNW) 2,199 5.0 -37.8°
Enters shadow 01:55:05 16° 302° (WNW) 1,826 4.4 -38.1°
